This demonstration page uses our WeatherBlox Daily Observations layout. Learn more.

Left ArrowRight Arrow

40.92945, -100.16068

Hourly Observations for July 1, 2020

Temp ( °F °C ) Dew Point ( °F °C ) Humidity (%) Winds ( mph kmh ) Pressure ( in mb ) Visibility ( mi km ) Precip ( " mm )
12:15 am 00:15 Clear 63 17.1 60 15.6 91 91 NE 7 11 29.79 1009 10 16.0934 0 0
12:35 am 00:35 Clear 64 17.6 61 16.1 91 91 N 5 7 29.78 1009 10 16.0934 0 0
12:55 am 00:55 Clear 62 16.9 60 15.7 93 93 NNE 5 7 29.78 1008 10 16.0934 0 0
1:15 am 01:15 Clear 63 17.2 61 16 93 93 NNE 6 9 29.78 1008 10 16.0934 0 0
1:35 am 01:35 Clear 64 18 61 16.2 89 89 N 5 7 29.76 1008 10 16.0934 0 0
1:55 am 01:55 Clear 63 17.4 61 16 92 92 N 6 9 29.77 1008 10 16.0934 0 0
2:15 am 02:15 Clear 63 17 61 15.9 93 93 NW 5 7 29.78 1008 10 16.0934 0 0
2:35 am 02:35 Partly Cloudy 64 17.5 61 16.1 92 92 ENE 9 15 29.75 1008 10 16.0934 0 0
2:55 am 02:55 Clear 64 18 61 16.1 89 89 NNW 6 9 29.77 1008 10 16.0934 0 0
3:15 am 03:15 Clear 64 17.6 60 15.8 89 89 N 5 7 29.77 1008 10 16.0934 0 0
3:35 am 03:35 Clear 64 17.5 61 16 91 91 NW 7 11 29.78 1009 10 16.0934 0 0
3:55 am 03:55 Clear 64 17.5 61 16 91 91 NW 3 6 29.79 1009 10 16.0934 0 0
4:15 am 04:15 Clear 62 16.8 60 15.6 93 93 N 6 9 29.8 1009 10 16.0934 0 0
4:35 am 04:35 Clear 61 16.1 59 15.1 94 94 NW 5 7 29.82 1010 10 16.0934 0 0
4:55 am 04:55 Clear 60 15.8 59 14.8 94 94 NW 7 11 29.83 1010 10 16.0934 0 0
5:15 am 05:15 Clear 59 15 57 13.9 93 93 NW 5 7 29.85 1011 10 16.0934 0 0
5:35 am 05:35 Clear 57 14 56 13.3 96 96 NW 7 11 29.86 1011 10 16.0934 0 0
5:55 am 05:55 Clear 57 13.7 56 13.2 97 97 WNW 5 7 29.88 1012 10 16.0934 0 0
6:15 am 06:15 Sunny 57 14 56 13.3 96 96 WNW 9 15 29.87 1012 10 16.0934 0 0
6:35 am 06:35 Sunny 56 13.6 55 13 96 96 WNW 7 11 29.89 1012 10 16.0934 0 0
6:55 am 06:55 Sunny 56 13.5 55 12.8 96 96 WNW 6 9 29.9 1013 10 16.0934 0 0
7:15 am 07:15 Sunny 58 14.2 56 13.4 95 95 NW 3 6 29.89 1012 10 16.0934 0 0
7:35 am 07:35 Sunny 59 15 57 13.9 93 93 Calm 29.91 1013 10 16.0934 0 0
7:55 am 07:55 Sunny 61 16 58 14.2 89 89 Calm 29.9 1012 10 16.0934 0 0
8:15 am 08:15 Sunny 63 17.2 58 14.7 85 85 Calm 29.9 1012 10 16.0934 0 0
8:35 am 08:35 Sunny 66 18.9 60 15.8 82 82 N 3 6 29.88 1012 10 16.0934 0 0
8:55 am 08:55 Sunny 69 20.4 61 16 76 76 NNE 3 6 29.88 1012 10 16.0934 0 0
9:15 am 09:15 Sunny 72 22.2 61 15.9 68 68 NNE 6 9 29.86 1011 10 16.0934 0 0
9:35 am 09:35 Sunny 74 23.6 59 15.1 59 59 ENE 7 11 29.85 1011 10 16.0934 0 0
9:55 am 09:55 Sunny 77 24.9 57 13.7 50 50 ENE 8 13 29.84 1011 10 16.0934 0 0
10:15 am 10:15 Sunny 79 26.3 57 14.1 47 47 E 7 11 29.83 1010 10 16.0934 0 0
10:35 am 10:35 Sunny 81 27.2 54 12.2 39 39 ENE 10 17 29.82 1010 10 16.0934 0 0
10:55 am 10:55 Sunny 84 28.8 50 10.2 31 31 E 10 17 29.81 1009 10 16.0934 0 0
11:15 am 11:15 Sunny 85 29.5 48 9 28 28 E 9 15 29.8 1009 10 16.0934 0 0
11:35 am 11:35 Sunny 86 30 47 8.1 25 25 E 10 17 29.8 1009 10 16.0934 0 0
11:55 am 11:55 Sunny 87 30.3 47 8.3 25 25 E 8 13 29.81 1009 10 16.0934 0 0
12:15 pm 12:15 Sunny 87 30.5 48 8.8 26 26 ENE 7 11 29.81 1009 10 16.0934 0 0
12:35 pm 12:35 Sunny 87 30.4 48 8.9 26 26 NE 5 7 29.81 1009 10 16.0934 0 0
12:55 pm 12:55 Sunny 88 31.3 49 9.6 26 26 ENE 3 6 29.8 1009 10 16.0934 0 0
1:15 pm 13:15 Sunny 88 31.2 49 9.7 26 26 NE 6 9 29.79 1009 10 16.0934 0 0
1:35 pm 13:35 Sunny 89 31.8 50 10 26 26 NE 6 9 29.79 1009 10 16.0934 0 0
1:55 pm 13:55 Sunny 90 32.4 50 10.1 25 25 NE 7 11 29.78 1008 10 16.0934 0 0
2:15 pm 14:15 Sunny 89 31.5 50 9.9 26 26 Calm 29.79 1009 10 16.0934 0 0
2:35 pm 14:35 Sunny 89 31.9 50 9.9 26 26 E 7 11 29.77 1008 10 16.0934 0 0
2:55 pm 14:55 Sunny 91 32.6 50 10.2 25 25 E 10 17 29.77 1008 10 16.0934 0 0
3:15 pm 15:15 Sunny 92 33.1 50 10.2 24 24 E 12 19 29.76 1008 10 16.0934 0 0
3:35 pm 15:35 Sunny 92 33.1 49 9.5 23 23 ESE 5 7 29.77 1008 10 16.0934 0 0
3:55 pm 15:55 Sunny 92 33.4 50 10 24 24 ESE 9 15 29.77 1008 10 16.0934 0 0
4:15 pm 16:15 Sunny 92 33.4 50 10 24 24 ESE 9 15 29.77 1008 10 16.0934 0 0
4:35 pm 16:35 Sunny 92 33.6 49 9.2 22 22 ESE 10 17 29.76 1008 10 16.0934 0 0
4:55 pm 16:55 Sunny 92 33.3 50 10 24 24 SE 9 15 29.76 1008 10 16.0934 0 0
5:15 pm 17:15 Sunny 92 33.4 50 10.1 24 24 E 7 11 29.76 1008 10 16.0934 0 0
5:35 pm 17:35 Sunny 92 33.1 50 9.9 24 24 ESE 8 13 29.76 1008 10 16.0934 0 0
5:55 pm 17:55 Sunny 91 32.8 52 11.2 27 27 E 12 19 29.77 1008 10 16.0934 0 0
6:15 pm 18:15 Sunny 89 31.9 53 11.4 28 28 ESE 12 19 29.77 1008 10 16.0934 0 0
6:35 pm 18:35 Sunny 89 31.6 52 11 28 28 E 9 15 29.77 1008 10 16.0934 0 0
6:55 pm 18:55 Sunny 88 31.2 52 11.2 29 29 ESE 13 20 29.77 1008 10 16.0934 0 0
7:15 pm 19:15 Sunny 87 30.6 54 12.2 32 32 ESE 12 19 29.78 1009 10 16.0934 0 0
7:35 pm 19:35 Sunny 86 30.1 54 12.4 34 34 ESE 10 17 29.79 1009 10 16.0934 0 0
7:55 pm 19:55 Sunny 85 29.2 51 10.7 32 32 ESE 9 15 29.81 1009 10 16.0934 0 0
8:15 pm 20:15 Sunny 83 28.4 52 11 34 34 E 7 11 29.81 1010 10 16.0934 0 0
8:35 pm 20:35 Sunny 81 27.1 53 11.6 38 38 ESE 6 9 29.82 1010 10 16.0934 0 0
8:55 pm 20:55 Sunny 79 26 53 11.5 40 40 ESE 6 9 29.84 1011 10 16.0934 0 0
9:15 pm 21:15 Clear 75 24 54 12.1 47 47 E 5 7 29.87 1011 10 16.0934 0 0
9:35 pm 21:35 Clear 70 21.1 56 13.5 62 62 E 6 9 29.89 1012 10 16.0934 0 0
9:55 pm 21:55 Clear 69 20.5 56 13.3 63 63 E 6 9 29.9 1012 10 16.0934 0 0
10:15 pm 22:15 Clear 68 20.2 58 14.5 70 70 ENE 3 6 29.91 1013 10 16.0934 0 0
10:35 pm 22:35 Clear 65 18.5 58 14.7 79 79 ENE 5 7 29.94 1014 10 16.0934 0 0
10:55 pm 22:55 Clear 65 18.3 56 13.6 74 74 E 6 9 29.95 1014 10 16.0934 0 0
11:15 pm 23:15 Clear 65 18.4 58 14.2 77 77 ENE 6 9 29.95 1014 10 16.0934 0 0
11:35 pm 23:35 Clear 65 18.5 58 14.7 79 79 ENE 5 7 29.94 1014 10 16.0934 0 0
11:55 pm 23:55 Clear 66 19 59 15 78 78 E 6 9 29.93 1014 10 16.0934 0 0

Powered by AerisWeather